Fullerton, CA

6:42 PM PDT on June 21, 2018 (GMT -0700)
Fullerton Municipal

Weather History for KFUL - October, 2017

Change the Weather History Date:

Tuesday, October 10, 2017

  Actual Average Record
Temperature  
Mean Temperature 74 °F 69 °F  
Max Temperature 90 °F 79 °F 103 °F (2015)
Min Temperature 58 °F 59 °F 50 °F (2013)
Degree Days  
Heating Degree Days 0 0  
Month to date heating degree days 0 0  
Since 1 July heating degree days 0 1  
Cooling Degree Days 9 4  
Month to date cooling degree days 74 51  
Year to date cooling degree days 1606 1169  
Growing Degree Days 23 (Base 50)    
Moisture  
Dew Point 54 °F    
Average Humidity 57    
Maximum Humidity 100    
Minimum Humidity 13    
Precipitation  
Precipitation 0.00 in 0.02 in 0.10 in (2000)
Month to date precipitation T 0.13  
Year to date precipitation 11.18 10.11  
Sea Level Pressure  
Sea Level Pressure 29.91 in    
Wind  
Wind Speed 2 mph (West)    
Max Wind Speed 9 mph    
Max Gust Speed 15 mph    
Visibility 7 miles    
Events      
T = Trace of Precipitation, MM = Missing Value Source: NWS Daily Summary

Daily Weather History Graph

Daily Weather History Graph

Search for Another Location

Airport or City:

Astronomy

Oct. 10, 2017 Rise Set
Actual Time 6:53 AM PDT 6:23 PM PDT
Civil Twilight 6:28 AM PDT 6:48 PM PDT
Nautical Twilight 5:59 AM PDT 7:17 PM PDT
Astronomical Twilight 5:30 AM PDT 7:46 PM PDT
Moon 10:42 PM PDT (10/10) 12:03 PM PDT (10/10)
Length of Visible Light 12h 20m
Length of Day
11h 30m
Waning Gibbous, 70% of the Moon is Illuminated
Oct 10
Waning Gibbous
Oct 12
Last Quarter
Oct 19
New
Oct 27
First Quarter
Nov 3
Full

Hourly Weather History & Observations

Time (PDT) Temp. Dew Point Humidity Pressure Visibility Wind Dir Wind Speed Gust Speed Precip Events Conditions
12:53 AM 64.9 °F 63.0 °F 93% 29.93 in 7.0 mi Calm Calm - N/A   Smoke
1:53 AM 64.0 °F 61.0 °F 90% 29.93 in 8.0 mi Calm Calm - N/A   Smoke
2:53 AM 62.1 °F 60.1 °F 93% 29.92 in 7.0 mi Calm Calm - N/A   Smoke
3:53 AM 60.1 °F 59.0 °F 96% 29.91 in 5.0 mi Calm Calm - N/A   Mist
4:53 AM 59.0 °F 57.0 °F 93% 29.91 in 6.0 mi Calm Calm - N/A   Mist
5:48 AM 57.2 °F 55.4 °F 94% 29.93 in 7.0 mi Calm Calm - N/A   Smoke
5:53 AM 57.9 °F 57.0 °F 97% 29.93 in 7.0 mi Calm Calm - N/A   Smoke
6:28 AM 60.1 °F 59.0 °F 96% 29.93 in 1.8 mi Calm Calm - N/A   Overcast
6:37 AM 60.1 °F 60.1 °F 100% 29.94 in 0.8 mi ENE 3.5 mph - N/A   Overcast
6:53 AM 61.0 °F 60.1 °F 97% 29.94 in 1.8 mi East 4.6 mph - N/A   Overcast
7:22 AM 61.0 °F 61.0 °F 100% 29.94 in 0.8 mi Calm Calm - N/A   Overcast
7:53 AM 61.0 °F 60.1 °F 97% 29.95 in 1.5 mi East 4.6 mph - N/A   Overcast
8:22 AM 61.0 °F 61.0 °F 100% 29.96 in 2.0 mi Calm Calm - N/A   Mostly Cloudy
8:42 AM 62.1 °F 61.0 °F 96% 29.96 in 2.5 mi Calm Calm - N/A   Scattered Clouds
8:53 AM 62.1 °F 61.0 °F 96% 29.96 in 3.0 mi Calm Calm - N/A   Partly Cloudy
9:53 AM 71.1 °F 48.0 °F 44% 29.95 in 10.0 mi Calm Calm - N/A   Smoke
10:53 AM 78.1 °F 46.9 °F 33% 29.94 in 10.0 mi Calm Calm - N/A   Smoke
11:53 AM 82.0 °F 46.9 °F 29% 29.92 in 10.0 mi West 4.6 mph - N/A   Smoke
12:53 PM 87.1 °F 39.9 °F 19% 29.90 in 10.0 mi SSW 6.9 mph - N/A   Smoke
1:53 PM 88.0 °F 30.0 °F 12% 29.86 in 10.0 mi Variable 4.6 mph - N/A   Smoke
2:53 PM 89.1 °F 32.0 °F 13% 29.84 in 10.0 mi Variable 4.6 mph - N/A   Smoke
3:53 PM 86.0 °F 46.0 °F 25% 29.84 in 10.0 mi West 6.9 mph - N/A   Smoke
4:53 PM 82.9 °F 45.0 °F 26% 29.83 in 10.0 mi Variable 3.5 mph - N/A   Smoke
5:53 PM 77.0 °F 50.0 °F 39% 29.85 in 10.0 mi West 5.8 mph - N/A   Smoke
6:53 PM 73.0 °F 48.9 °F 42% 29.86 in 10.0 mi WNW 3.5 mph - N/A   Smoke
7:53 PM 70.0 °F 55.0 °F 59% 29.87 in 10.0 mi West 4.6 mph - N/A   Smoke
8:53 PM 66.9 °F 57.9 °F 73% 29.88 in 10.0 mi Calm Calm - N/A   Clear
9:53 PM 66.0 °F 57.9 °F 75% 29.88 in 10.0 mi Calm Calm - N/A   Clear
10:53 PM 64.0 °F 57.0 °F 78% 29.88 in 10.0 mi Calm Calm - N/A   Clear
11:53 PM 63.0 °F 57.0 °F 81% 29.88 in 10.0 mi Calm Calm - N/A   Clear